Home > Weather > Orkanger/Fannrem > Past weeks

Flag for Norway Past Weather in Orkanger/Fannrem, Norway — Yesterday and Last 2 Weeks

Now
63 °F

Mild.


Feels Like: 63 °F
Forecast: 53 / 69 °F
Wind: 6 mph from Southeast

Location: Marstein

Current Time: Jun 30, 2016 at 7:01:49 AM

Latest Report: Jun 30, 2016 at 6:00 AM


Visibility: N/A

Pressure: 29.57 "Hg

Humidity: 46%

Dew Point: 42 °F

Location of Orkanger/FannremLocation

Past Weather in Orkanger/Fannrem — Graph

°F

Orkanger/Fannrem Temperature Yesterday

Maximum temperature yesterday: 71 °F (at 6:00 PM)
Minimum temperature yesterday: 46 °F (at 2:00 AM)
Average temperature yesterday: 57 °F

High & Low Weather Summary for the Past Weeks

 TemperatureHumidityPressure
High73 °F (Jun 23, 1:00 PM)94% (Jun 27, 5:00 AM)30.10 "Hg (Jun 27, 5:00 AM)
Low40 °F (Jun 20, 8:00 AM)19% (Jun 20, 3:00 PM)29.57 "Hg (Jun 27, 9:00 AM)
Average57 °F72%29.84 "Hg
* Reported Jun 15 6:00 AM — Jun 30 6:00 AM, Orkanger/Fannrem, Weather by CustomWeather, © 2016

Note: Actual official high and low records may vary slightly from our data, if they occured in-between our weather recording intervals... More about our weather records

Advertising

Orkanger/Fannrem Weather History for the Previous 24 Hours

Scroll right to see more
 ConditionsComfort  
Time TempWeatherWind HumidityBarometerVisibility
6:00 AM
Thu, Jun 30
63 °FMild.6 mph46%29.57 "HgN/A
5:00 AM64 °FMild.6 mph43%29.58 "HgN/A
4:00 AM64 °FMild.3 mph40%29.59 "HgN/A
3:00 AM64 °FMild.3 mph38%29.62 "HgN/A
2:00 AM64 °FMild.2 mph38%29.63 "HgN/A
1:00 AM64 °FMild.3 mph39%29.65 "HgN/A
12:00 AM65 °FMild.2 mph36%29.65 "HgN/A
11:00 PM
Wed, Jun 29
65 °FMild.2 mph34%29.64 "HgN/A
10:00 PM67 °FMild.5 mph29%29.64 "HgN/A
9:00 PM68 °FMild.3 mph32%29.65 "HgN/A
8:00 PM68 °FMild.2 mph35%29.65 "HgN/A
7:00 PM68 °FMild.5 mph32%29.65 "HgN/A
6:00 PM71 °FMild.2 mph37%29.65 "HgN/A
2:00 PM61 °FCool.2 mph65%29.76 "HgN/A
1:00 PM64 °FMild.2 mph65%29.75 "HgN/A
12:00 PM64 °FMild.2 mph61%29.74 "HgN/A
11:00 AM64 °FMild.1 mph58%29.75 "HgN/A
10:00 AM61 °FCool.2 mph65%29.78 "HgN/A
9:00 AM48 °FCool.1 mph91%29.81 "HgN/A
8:00 AM47 °FCool.1 mph90%29.83 "HgN/A
7:00 AM47 °FCool.1 mph89%29.85 "HgN/A
Weather by CustomWeather, © 2016

See weather overviewHow to use our weather pages